User: anonymous   Login
Location: Valley View Observatory
(41.0081°N, 76.5874°W)
Time: 13:06:23
(UTC-04:00)
Language:

Cosmos 2237 Rocket - Orbit

View from above orbital plane
View from above orbital plane
View from above satellite
View from above satellite

Ground track
Ground track

The orbit data is extracted from the following two-line orbital elements,

1 22566U 93016B   15116.45879826  .00000340  00000-0  20043-3 0  9992
2 22566 071.0074 269.8436 0012332 247.8836 112.0978 14.14898338140551
Epoch (UTC): 26 April 2015 11:00:40
Eccentricity: 0.0012332
inclination: 71.0074°
perigee height: 834 km
apogee height: 851 km
right ascension of ascending node: 269.8436°
argument of perigee: 247.8836°
revolutions per day: 14.14898338
mean anomaly at epoch: 112.0978°
orbit number at epoch: 14055

The dashed part of the orbit path shows where the satellite is in the earth's shadow,  

DLR